Flag for U.S.A. Weather past 2 weeks in Oceanside, California, U.S.A.

43 °F


Feels Like: 43 °F
Forecast: 42 / 62 °F
Wind: No wind

Location: Oceanside Weather Reporting Station

Current Time: Nov 28, 2015 at 3:44:00 AM

Latest Report: Nov 28, 2015 at 2:52 AM

Visibility: 10 mi

Pressure: 30.05 "Hg

Humidity: 89%

Dew point: 40 °F

Location of OceansideLocation

Historic Weather in Oceanside — Graph


Oceanside temperature yesterday

Maximum temperature yesterday: 62 °F (at 12:52 PM)
Minimum temperature yesterday: 44 °F (at 11:52 PM)
Average temperature yesterday: 52 °F

Past Weeks' High & Low Weather Summary

High88 °F (Nov 21, 10:52 AM)92% (Nov 28, 12:52 AM)30.19 "Hg (Nov 28, 12:52 AM)
Low35 °F (Nov 13, 3:52 AM)10% (Nov 14, 10:52 AM)29.84 "Hg (Nov 25, 2:52 AM)
Average57 °F55%29.96 "Hg
* Reported Nov 13 1:52 AM — Nov 28 1:52 AM, Oceanside, Weather by CustomWeather, © 2015

Note: Actual official high and low records may vary slightly from our data, if they occured in-between our weather recording intervals... More about our weather records


Oceanside weather history for previous 24 hours

Time TempWeatherWind HumidityBarometerVisibility
1:52 AM
Sat, Nov 28
42 °FClear.No wind85%30.05 "Hg10 mi
12:52 AM42 °FQuite cool.No wind92%30.05 "Hg10 mi
11:52 PM
Fri, Nov 27
44 °FQuite cool.3 mph89%30.04 "Hg10 mi
10:52 PM45 °FCool.No wind86%30.05 "Hg10 mi
9:52 PM46 °FCool.No wind86%30.05 "Hg10 mi
8:52 PM47 °FClear.No wind86%30.04 "Hg10 mi
7:52 PM50 °FOvercast.3 mph80%30.03 "Hg10 mi
6:52 PM50 °FClear.5 mph77%30.02 "Hg10 mi
5:52 PM52 °FClear.6 mph77%30.01 "Hg10 mi
4:52 PM54 °FPassing clouds.7 mph69%29.99 "Hg10 mi
3:52 PM56 °FBroken clouds.8 mph62%29.99 "Hg10 mi
2:52 PM61 °FPartly sunny.8 mph50%29.97 "Hg10 mi
1:52 PM62 °FPassing clouds.13 mph50%29.96 "Hg10 mi
12:52 PM62 °FPassing clouds.7 mph43%29.97 "Hg10 mi
11:52 AM61 °FMore clouds than sun.3 mph52%29.98 "Hg10 mi
10:52 AM60 °FPartly sunny.8 mph53%30.01 "Hg10 mi
9:52 AM57 °FOvercast.5 mph67%30.03 "Hg10 mi
8:52 AM55 °FSunny.6 mph69%30.03 "Hg10 mi
7:52 AM50 °FScattered clouds.5 mph86%30.01 "Hg10 mi
6:52 AM48 °FPartly sunny.5 mph89%30.00 "Hg10 mi
5:52 AM48 °FClear.7 mph89%29.99 "Hg10 mi
4:52 AM49 °FPassing clouds.6 mph90%29.98 "Hg10 mi
3:52 AM50 °FHeavy rain. Fog.6 mph89%29.99 "Hg2 mi
Weather by CustomWeather, © 2015

See weather overviewHow to use our weather pages